Location: Wingville
(42.9917°N, 90.4915°W)
Time: 09:25:30
(UTC+00:00)

Cosmos 1805 Rocket - Pass Details

Date: 06 December 2022
Orbit: 605 x 629 km, 82.5° (Epoch: 30 January)

Event Time Altitude Azimuth Distance (km) Brightness Sun altitude
Rises 00:29:34 0° 352° (N) 2,915 7.0 -21.6°
Reaches altitude 10° 00:31:48 10° 353° (N) 2,007 6.1 -22.0°
Maximum altitude 00:36:15 84° 82° (E) 637 3.4 -22.8°
Drops below altitude 10° 00:40:42 10° 171° (S) 2,000 6.2 -23.6°
Sets 00:42:56 0° 172° (S) 2,903 7.0 -24.0°
